Starlink 31307

operational
NORAD ID: 59089 Int'l Des: 2024-041 Owner: SPXS Country: US Constellation: starlink
LEOCIRCULAR

关于 Starlink 31307

正在加载描述...

实时位置

正在加载3D地球...

即将过境

高度历史

Altitude vs Time

uPlot chart will show altitude changes over time

两行轨道根数

1 59089U 24041R 25350.25696817 .00000090 00000-0 12800-4 0 9995
2 59089 43.0031 61.7111 0000894 281.5691 78.5060 15.27572935101569
Epoch: Dec 16, 2025 • Age: 15 hours

当前状态

高度 484.3 km
速度 7.62 km/s
星下点 -8.18°S, 155.65°W
发射日期 Feb 29, 2024
运行时间 1.7 years
类型 internet

技术详情

分类 Payload
质量 730.00 kg
干质量 700.00 kg
总质量 730.00 kg
长度 0.30 m
直径 4.10 m
跨度 29.00 m
形状 Box + pan
制造商 SPXS
平台类型 Starlink V2M
阶段状态 In Orbit
所有者/国家 SPXS/US

大型星座

Loading constellations...